Theta_e
340 340 342 342 341 337 341 338 332 335 344 345 345 344 341 334 330 332 335 336 336 337 338 338 340 340 341 340 335 335 335 336 336 338 340 340 338 337 338 338 340 345 340
340 341 343 341 340 335 338 339 334 330 338 344 344 340 333 335 341 342 341 340 339 338 337 341 340 336 334 333 332 332 333 335 337 338 340 339 339 341 339 337 341 342 337
340 340 340 341 339 338 340 338 340 339 335 338 338 336 340 341 342 340 339 340 334 337 334 333 334 336 334 331 328 329 331 333 334 338 337 346 343 342 339 338 339 340 339
336 339 340 339 340 337 341 341 340 340 340 341 341 342 342 342 343 339 342 334 339 333 332 333 335 336 336 335 334 332 330 333 334 336 337 342 346 339 338 336 337 337 338
336 339 344 342 338 338 340 342 339 341 341 341 341 341 339 340 338 335 340 333 336 332 333 334 337 336 339 338 339 339 337 334 330 331 337 335 346 338 333 331 331 331 332
337 337 344 342 343 343 343 342 341 340 339 339 335 340 342 343 330 330 334 340 333 328 331 335 338 338 340 341 342 343 343 342 336 330 329 333 334 334 332 331 331 330 329
338 339 344 343 343 339 340 337 338 341 341 338 337 341 338 329 332 342 338 339 332 329 328 331 337 337 339 342 344 343 342 342 344 341 332 330 331 332 333 333 333 333 333
339 339 342 338 335 338 342 341 338 340 337 341 341 342 329 331 337 335 332 332 332 330 328 328 333 338 343 343 343 341 338 341 342 342 339 331 329 329 330 333 333 332 333
340 335 334 336 341 339 340 336 339 342 342 340 331 330 331 331 331 332 334 335 336 337 338 340 343 344 344 341 338 339 339 339 341 342 342 336 330 329 329 329 330 332 332
340 339 340 341 342 343 338 335 337 340 337 333 334 332 331 332 333 335 336 337 337 338 340 341 342 341 340 338 338 341 342 339 340 342 342 341 335 331 329 329 330 332 330
340 336 334 336 342 339 340 336 338 341 333 328 333 331 331 333 335 337 337 338 338 339 341 343 344 344 345 344 345 346 344 342 341 342 342 341 340 335 333 331 330 330 330
337 338 335 335 332 334 341 336 334 338 328 327 332 330 331 334 336 337 337 338 341 344 345 341 345 343 344 344 345 344 346 344 343 342 341 341 341 339 336 336 335 331 330
334 333 331 331 330 334 338 334 335 334 325 326 331 330 332 334 336 337 337 339 341 344 344 341 341 342 343 344 346 346 346 345 344 343 343 342 341 341 340 338 338 337 333
329 329 327 332 331 331 330 331 332 325 326 329 330 331 333 335 336 337 337 340 341 341 342 337 341 342 345 345 345 345 344 345 346 345 344 343 343 341 341 341 340 340 340
333 325 324 329 329 328 326 325 325 327 329 330 330 331 333 335 336 337 339 341 341 337 334 338 344 343 344 344 345 344 343 343 344 344 344 345 346 344 341 342 341 341 341
339 326 322 324 327 327 325 325 327 329 330 330 331 332 334 335 336 340 343 343 338 337 334 336 341 344 345 345 343 340 341 340 340 341 343 343 343 344 346 343 341 342 342
337 324 323 323 324 325 326 329 340 343 339 336 338 343 343 343 342 340 339 339 339 337 342 341 343 344 344 342 343 341 341 343 342 342 345 344 344 343 344 346 344 343 342
342 325 324 324 325 326 328 341 344 342 342 338 343 341 340 343 338 343 342 341 338 340 343 343 344 342 342 344 343 343 344 342 341 337 338 342 343 343 343 345 348 347 344
342 330 324 325 326 328 332 343 345 346 345 340 344 340 339 341 344 344 344 340 344 344 343 343 343 341 342 344 345 344 343 341 339 339 340 339 342 344 344 344 345 347 347
340 341 327 326 327 330 340 342 343 344 343 344 346 344 341 342 343 344 341 341 342 343 344 343 341 340 343 345 341 341 341 341 343 343 343 343 343 343 345 346 346 346 347
343 341 338 331 331 330 335 336 340 339 340 344 343 346 347 346 344 343 343 342 342 343 343 342 340 343 345 340 339 341 342 343 343 342 342 343 344 344 344 344 346 347 348
345 342 341 337 333 337 338 338 339 341 343 342 343 344 343 344 346 346 345 346 346 346 345 344 344 343 344 343 344 343 345 341 336 335 335 339 339 341 342 342 345 346 346
345 345 341 341 338 337 338 339 339 339 342 346 346 345 346 346 346 346 343 342 344 345 344 343 343 344 344 341 343 342 341 344 337 329 330 331 332 333 335 340 342 343 343
345 345 345 341 340 339 338 339 339 340 341 345 346 346 345 345 345 346 345 345 343 342 341 344 346 343 342 340 340 341 342 342 339 333 333 336 336 336 339 340 341 342 343
344 344 344 343 340 340 339 340 339 340 341 343 345 346 345 344 342 339 340 339 342 340 344 345 342 341 342 342 341 341 340 339 340 336 332 330 333 332 332 330 328 328 330
345 342 341 342 340 340 339 340 340 342 344 343 343 344 343 344 342 340 343 343 343 343 344 343 342 341 341 341 341 340 339 337 334 338 332 329 328 325 324 325 323 321 320
Wind_Speed
18 15 13 12 10 11 11 12 13 13 14 15 14 12 9 10 10 12 11 10 9 8 7 7 9 9 8 8 7 7 8 9 9 9 11 12 12 12 10 10 13 12 12
19 17 14 12 10 10 12 12 13 14 14 14 13 10 10 11 12 12 11 11 10 10 10 11 12 11 10 10 10 10 9 10 10 10 11 11 11 10 11 12 14 13 13
17 16 15 12 11 11 12 12 13 14 13 13 12 12 12 12 12 12 12 11 11 11 12 14 14 13 14 13 12 11 11 11 9 7 11 10 11 11 12 12 12 13 14
18 17 16 13 11 12 13 12 13 13 13 13 13 13 13 12 12 12 11 10 11 12 13 14 15 15 13 16 17 15 12 12 11 9 8 10 9 11 13 13 13 14 13
18 16 15 13 12 13 11 12 12 12 12 12 13 13 13 12 11 12 12 10 11 12 13 14 13 14 14 13 13 12 13 11 10 9 8 7 9 9 11 12 12 12 12
18 15 14 14 12 13 12 13 12 13 13 12 13 14 13 12 11 12 12 11 11 12 12 13 12 11 11 11 12 11 9 8 8 9 7 6 6 10 12 12 11 10 9
17 15 14 13 12 12 13 13 13 13 12 12 14 12 12 12 14 13 11 11 10 10 10 10 10 9 9 9 10 10 8 7 5 5 7 5 6 5 8 10 10 8 8
16 15 14 13 12 12 12 12 14 13 13 12 13 13 13 15 15 14 13 12 11 10 10 9 8 8 8 6 5 6 6 5 4 4 4 3 4 6 6 8 9 8 8
15 15 15 15 13 13 13 13 13 13 13 12 14 15 15 15 14 14 13 12 12 12 11 10 9 7 5 4 5 6 6 3 3 5 4 2 1 3 4 6 7 8 9
15 15 15 15 13 13 14 14 13 13 12 12 15 16 15 15 15 14 13 11 10 10 10 8 6 6 3 3 3 5 7 5 3 2 3 3 2 2 4 5 6 6 7
15 15 16 15 15 16 16 15 14 14 13 14 16 17 16 16 15 14 13 10 9 7 7 6 5 3 2 1 3 4 4 6 4 2 1 2 1 0 3 5 6 6 7
17 16 16 16 17 19 17 17 17 16 15 17 18 18 17 16 15 14 12 10 9 8 5 4 2 3 3 1 1 2 2 1 1 1 2 3 3 2 2 4 5 6 7
17 17 18 17 18 19 18 19 20 17 17 18 18 18 17 16 15 13 11 10 8 5 4 2 2 2 0 2 1 2 3 2 2 1 1 1 3 4 4 4 4 4 7
17 17 19 19 19 18 19 20 18 18 18 19 19 18 17 16 14 12 10 8 6 3 3 3 2 2 3 2 1 1 2 2 3 4 3 2 2 4 5 6 5 5 5
16 17 19 20 19 19 20 20 19 19 19 20 20 19 17 15 13 11 10 9 8 7 6 7 3 1 1 1 1 1 2 2 3 3 4 4 4 4 5 7 7 7 6
15 17 17 18 19 20 20 20 21 20 20 18 17 16 15 14 13 11 10 10 8 10 10 10 7 5 5 4 5 1 0 3 4 6 8 9 7 6 8 7 7 7 7
15 17 18 18 20 21 22 23 21 18 17 17 16 14 13 13 12 10 10 11 12 8 5 7 7 8 9 10 9 7 8 8 9 8 9 9 12 12 9 10 10 9 8
16 17 19 21 21 22 24 23 18 16 16 17 15 12 11 14 14 9 7 7 7 7 6 8 7 8 7 6 7 9 10 12 13 13 12 11 10 14 13 11 12 11 10
19 18 22 22 23 24 25 21 16 13 15 17 15 13 14 11 12 10 7 10 8 9 9 8 7 7 8 9 8 12 14 14 13 12 12 12 12 11 17 15 13 13 14
22 20 22 24 25 27 26 23 21 19 18 19 18 15 13 13 12 11 10 9 12 14 14 13 11 9 10 11 14 15 14 15 12 11 11 11 13 12 13 18 20 18 17
27 27 26 27 27 30 31 29 26 25 22 21 21 18 16 14 13 13 12 13 15 17 18 16 15 12 14 15 13 11 9 10 10 11 11 13 11 11 11 13 16 20 15
31 32 31 30 30 31 31 30 28 25 24 23 21 19 19 18 16 17 19 21 21 20 21 16 14 16 16 15 11 10 5 4 5 7 7 9 9 11 10 10 10 11 16
36 36 36 34 32 32 33 32 29 27 26 25 23 22 23 22 21 22 24 24 23 21 23 23 17 13 14 13 10 9 5 3 4 3 3 2 5 8 8 6 8 11 16
36 36 38 35 35 33 35 35 32 30 28 26 23 20 18 19 19 21 20 17 19 27 26 23 13 11 11 12 13 13 10 10 7 3 6 6 7 5 6 7 6 5 8
31 33 35 39 37 35 35 35 33 32 29 28 25 25 22 21 19 19 22 27 28 28 24 18 13 14 13 15 14 12 7 3 7 7 6 10 12 12 10 10 10 10 7
30 33 32 37 37 37 34 33 33 32 31 28 26 25 24 17 12 12 19 20 23 23 18 10 12 14 14 13 13 12 8 6 4 6 9 10 9 11 9 9 8 7 7
Wind_Direction
160 156 149 150 144 142 141 139 143 147 147 156 158 150 137 130 127 128 130 129 135 135 130 137 138 143 135 132 123 115 108 102 99 104 106 110 125 134 134 138 139 137 144
156 155 154 154 152 154 148 140 143 143 149 154 160 157 139 129 126 126 125 127 125 127 122 116 117 116 117 120 118 110 102 97 98 99 99 99 110 126 127 137 138 139 140
157 154 153 160 155 152 153 146 141 141 141 142 142 142 134 130 126 126 126 122 125 123 121 116 106 89 96 101 103 104 105 100 92 99 104 98 110 118 130 131 135 138 141
159 155 154 158 159 151 146 142 142 141 141 142 141 137 132 131 129 128 128 128 127 121 120 121 109 102 106 96 96 90 94 97 97 101 95 102 109 116 130 133 138 140 139
157 155 151 156 152 149 147 143 143 142 146 140 140 139 135 133 139 141 135 131 124 124 126 129 116 106 99 98 97 87 86 83 97 100 104 110 117 119 130 138 141 146 148
155 154 151 155 153 151 150 151 149 149 142 144 146 144 141 147 137 138 136 134 135 133 136 135 124 109 97 88 78 74 75 79 84 91 108 121 116 138 142 143 141 143 147
154 152 153 158 157 156 154 153 149 150 149 141 144 146 153 144 139 133 145 136 130 129 132 134 129 118 106 98 97 91 84 86 81 89 93 120 133 141 153 155 156 166 169
159 155 157 163 164 159 157 158 152 150 152 150 157 156 148 147 146 147 136 128 125 123 124 124 116 109 102 89 87 79 61 59 70 82 91 108 135 145 158 174 177 186 194
163 156 161 163 166 165 164 156 154 153 154 155 150 147 150 150 145 139 131 129 124 122 120 118 119 116 100 91 98 77 51 63 89 74 84 63 145 156 170 170 181 187 202
167 167 170 168 163 161 161 162 165 161 168 167 154 152 155 154 148 142 135 135 132 131 128 124 123 112 101 101 59 33 46 72 102 103 68 69 50 205 198 188 190 196 193
178 176 176 174 170 168 173 171 170 171 174 170 162 160 160 159 155 149 146 149 146 141 139 136 135 139 150 297 335 344 44 66 83 128 163 123 96 128 220 210 204 211 213
185 183 182 183 179 174 177 178 177 179 180 175 170 165 164 163 162 160 159 162 164 162 171 140 111 130 123 84 53 35 23 78 48 106 206 200 169 181 219 227 204 221 226
186 187 186 185 183 181 183 183 183 184 181 175 171 169 169 171 171 174 176 180 190 189 177 230 222 229 320 133 92 48 34 14 315 311 284 239 221 199 211 221 218 221 236
187 191 191 185 183 187 188 187 188 184 178 174 173 175 175 176 180 186 193 202 211 216 261 261 302 239 137 117 91 46 68 35 341 303 286 281 253 241 226 219 225 221 224
179 187 194 191 186 187 185 184 183 177 174 175 176 178 180 183 188 198 206 215 224 254 295 269 277 221 216 313 354 221 293 352 297 286 284 279 276 271 256 243 230 228 227
184 184 190 191 192 190 189 184 176 173 175 179 180 183 185 191 196 208 219 229 240 275 271 243 259 280 285 295 309 277 326 327 312 295 273 260 254 262 257 253 248 242 238
184 183 185 184 191 191 186 177 176 177 183 184 182 188 203 212 211 223 233 239 245 245 256 240 250 264 280 280 269 265 289 300 311 308 293 273 263 249 244 241 244 247 247
196 190 183 185 190 187 182 180 186 194 197 196 200 213 203 208 213 226 245 210 209 225 246 262 269 275 275 294 288 287 293 298 301 298 293 301 292 242 238 238 239 244 251
202 200 188 187 190 189 185 188 194 204 208 204 212 212 207 208 209 218 222 225 239 243 271 280 269 278 289 294 299 295 294 293 293 289 291 286 290 265 241 244 241 244 244
209 206 201 193 190 191 193 199 204 207 206 205 212 216 219 223 225 229 238 243 249 261 272 275 273 281 282 284 291 297 297 294 296 291 285 284 282 268 255 249 248 247 242
217 213 209 204 199 199 201 206 213 219 218 220 219 224 231 237 240 247 254 259 260 266 271 270 266 271 283 289 294 304 301 287 298 296 286 281 285 272 260 259 260 246 238
225 221 217 214 208 208 209 213 220 223 226 229 231 232 235 236 246 253 258 260 259 261 259 263 266 268 277 285 282 285 253 257 288 296 297 286 283 281 281 275 267 244 230
233 228 223 221 215 215 217 222 228 232 234 233 236 245 242 243 260 259 267 267 259 261 266 272 259 259 261 273 278 260 270 239 198 332 327 284 272 278 282 277 248 230 236
240 235 229 227 224 222 223 228 233 236 235 236 241 248 250 255 264 269 271 257 271 270 271 268 255 262 265 269 280 273 260 243 202 191 75 111 123 135 115 114 115 160 181
242 241 229 224 227 225 227 231 236 238 242 247 248 250 251 257 268 277 285 276 273 264 276 254 251 262 260 273 271 263 266 273 222 193 158 122 128 123 124 117 107 111 121
247 243 229 220 228 230 231 234 239 239 244 249 249 250 255 254 254 276 284 266 265 255 249 247 257 265 268 255 267 254 247 257 246 208 177 155 149 127 128 139 125 108 104